MIDAS 5 DEB, 274

Orbit data source: Space-Track

MIDAS 5 DEB, 274 is space debris in LEO originally from a launch on Mon, 09 Apr 1962 UTC launched from the Air Force Western Test Range (AFWTR). Debris objects in space refer to the collection of defunct objects orbiting the Earth. Examples of debris include non-operational satellites, rocket bodies, and fragments generated from explosions, collisions, or faulty payload assembly.

Loading next visibility...
Identifier
274, 1962-010D
Orbit
LEO
Country
Flag of USUS
Related business
Manufacturer
Unknown
Mission
Spacecraft
Bus & Motor
Unknown
Mass
~10 kg wet, ~10 kg dry
Launch date (UTC)
1962-04-09 (64 years ago)
Launch vehicle
Unknown
Launch site
Air Force Western Test Range (AFWTR)
Object type
Payload
Rocket body
Debris
Shape & HBR
Unknown shape, 0.5 m
Radar Cross Section
Medium (>0.1 m² and <1 m²)

Expand to show TLE details & history
Last TLE update: 18 hours ago

TLE from 18 hours ago
0 MIDAS 5 DEB
1   274U 62010D   25312.39764334 -.00000042  00000-0 -97432-2 0  9999
2   274  86.6759   5.5403 0349970  79.2162 284.7927  9.39377108180052
Epoch: 2025-11-08T09:32Z
TLE epoch observation values (Epoch: 2025-11-08T09:32:36.384Z)
Latitude
0.00003°
Longitude
174.56086°
Altitude
3,038.393 km
Speed
6.532 km/s
True Right ascension
00h 22m 09s
True Declination
0° 00' 00"
Sunlit
Object was in full shadow at epoch
Visualization orbit readout
Latitude
Unknown
Longitude
Unknown
Altitude
Unknown
Speed
Unknown
Apparent Right ascension
Unknown
Apparent Declination
Unknown
Sunlit
N/A
Visualization observer readout
Local Sidereal Time
23:39:29
Azimuth
Unknown
Elevation
Unknown
Doppler factor
Unknown
Orbital elements
Apogee altitude
3,439.55 km
Perigee altitude
2,775.607 km
Semi-major axis
9,485.716 km
Eccentricity
0.035
Inclination
86.6759°
RAAN
5.5403°
Arg. of periapsis
79.2162°
True anomaly
280.87454°
Mean anomaly
284.7927°
Eccentric anomaly
282.83764°
Mean motion
2.3493 °/min
Orbital period
153.24 mins
BSTAR
-0.0097432
Loading maneuver chart data...
Computing Atmospheric mass density...
Loading historical data...
Loading historical data...
Loading historical data...
Loading historical data...
Loading historical data...
Loading historical data...
Loading historical data...

Documentation

Showing up to 5 results
|